Home   Weather   Kitchener   Past weeks

Flag for Canada Past Weather in Kitchener, Ontario, Canada — Yesterday and Last 2 Weeks

Now
68 °F

Light rain. Overcast.


Feels Like: 68 °F
Forecast: 58 / 74 °F
Wind: 5 mph from South

Location: Waterloo Well

Current Time: Jul 22, 2017 at 9:00:04 pm

Latest Report: Jul 22, 2017 at 8:00 pm


Visibility: 9 mi

Pressure: 29.82 "Hg

Humidity: 88%

Dew Point: 64 °F

Location of KitchenerLocation

Past Weather in Kitchener — Graph

°F

Kitchener Temperature Yesterday

Maximum temperature yesterday: 82 °F (at 2:00 pm)
Minimum temperature yesterday: 61 °F (at 6:00 am)
Average temperature yesterday: 69 °F

High & Low Weather Summary for the Past Weeks

 TemperatureHumidityPressure
High86 °F (Jul 19, 4:00 pm)100% (Jul 10, 11:02 pm)30.12 "Hg (Jul 10, 11:02 pm)
Low55 °F (Jul 11, 4:00 am)38% (Jul 8, 5:00 pm)29.72 "Hg (Jul 8, 1:00 am)
Average67 °F83%29.96 "Hg
* Reported Jul 7 7:00 pm — Jul 22 7:39 pm, Kitchener. Weather by CustomWeather, © 2017

Note: Actual official high and low records may vary slightly from our data, if they occured in-between our weather recording intervals... More about our weather records

Advertising

Kitchener Weather History for the Previous 24 Hours

Scroll right to see more
 ConditionsComfort  
Time TempWeatherWind HumidityBarometerVisibility
7:39 pm
Sat, Jul 22
68 °FMostly cloudy.5 mph83%29.81 "Hg9 mi
7:03 pm70 °FLight rain. Mostly cloudy.2 mph83%29.81 "Hg9 mi
6:00 pm72 °FOvercast.7 mph73%29.80 "Hg9 mi
5:00 pm72 °FPartly sunny.8 mph83%29.80 "Hg9 mi
4:40 pm68 °FPartly sunny.6 mph83%29.82 "Hg9 mi
3:00 pm70 °FMostly cloudy.6 mph78%29.85 "Hg9 mi
2:42 pm70 °FMore clouds than sun.6 mph73%29.85 "Hg9 mi
2:29 pm70 °FLight rain. More clouds than sun.5 mph73%29.86 "Hg9 mi
2:00 pm70 °FOvercast.6 mph73%29.85 "Hg9 mi
1:00 pm68 °FLight rain. Mostly cloudy.6 mph88%29.88 "Hg9 mi
12:00 pm68 °FLight rain. More clouds than sun.5 mph83%29.90 "Hg9 mi
11:00 am68 °FLight rain. More clouds than sun.5 mph83%29.90 "Hg9 mi
10:00 am68 °FLight rain. Mostly cloudy.5 mph88%29.90 "Hg9 mi
9:00 am68 °FLight rain. More clouds than sun.3 mph88%29.90 "Hg9 mi
8:00 am68 °FBroken clouds.3 mph88%29.89 "Hg9 mi
7:59 am68 °FBroken clouds.3 mph83%29.89 "Hg9 mi
7:37 am66 °FLight rain. Overcast.3 mph88%29.90 "Hg9 mi
7:00 am66 °FMore clouds than sun.3 mph88%29.90 "Hg9 mi
6:00 am64 °FOvercast.No wind94%29.90 "Hg9 mi
5:00 am63 °FMostly cloudy.2 mph94%29.91 "Hg9 mi
4:00 am64 °FOvercast.2 mph94%29.91 "Hg9 mi
3:00 am63 °FOvercast.2 mph94%29.91 "Hg9 mi
2:00 am64 °FMostly cloudy.No wind88%29.94 "Hg9 mi
1:00 am64 °FOvercast.No wind88%29.96 "Hg9 mi
12:00 am64 °FOvercast.No wind94%29.96 "Hg9 mi
11:00 pm
Fri, Jul 21
64 °FMostly cloudy.No wind88%29.95 "Hg9 mi
10:00 pm64 °FOvercast.No wind88%29.95 "Hg9 mi
9:00 pm72 °FPassing clouds.3 mph61%29.95 "Hg9 mi
Weather by CustomWeather, © 2017

See weather overviewHow to use our weather pages